Tracking 28888 objects as of 22-May-2024
HD Live streaming from Space Station
objects crossing your sky now

STARLINK-6283

Track STARLINK-6283 now!
10-day predictions
STARLINK-6283 is classified as:


NORAD ID: 56406
Int'l Code: 2023-061AJ
Perigee: 565.5 km
Apogee: 567.0 km
Inclination: 43.0 °
Period: 95.8 minutes
Semi major axis: 6937 km
RCS: Unknown
Launch date: May 4, 2023
Source: United States (US)
Launch site: AIR FORCE EASTERN TEST RANGE (AFETR)
Your satellite tracking list
Your tracking list is empty




NASA's NSSDC Master Catalog

Two Line Element Set (TLE):
1 56406U 23061AJ  24142.34880474  .00002406  00000-0  19312-3 0  9995
2 56406  43.0020 156.2632 0001061 268.4140  91.6581 15.02536428 58021
Source of the keplerian elements: AFSPC